Weather in Pervomayskiy

Russia / Republic of Kalmykia     45°52′52″N   44°11′27″E
temp.,
°C
wind,
m/s
gust,
m/s
humid.,
%
clouds,
%
prec.,
mm/h
press.,
hPa
HPBL,
m
12 april, mon
mon1200:00+12e41057100 0.0 1017203
03:00+11ene41062100 0.0 1017182
06:00+13ese61253100 0.0 1018435
09:00+15ese6848100 0.0 1019628
12:00+16ese71150100 0.0 1019874
15:00+19ese91140100 0.0 10201374
18:00+15ese61058100 0.0 1021503
21:00+13ese41062100 0.0 1022290
13 april, tue
tue1300:00+11e4765100 0.0 1022137
03:00+10ese346959 0.0 102293
06:00+11e367098 0.0 1022173
09:00+15se5106431 0.0 1023647
12:00+20ese81241100 0.0 10211613
15:00+22ese91129100 0.0 10202467
18:00+18ese7114153 0.0 1020331
21:00+13ese6134315 0.0 1021309
14 april, wed
wed1400:00+11e484866 0.0 1020147
03:00+10ene495026 0.0 1018148
06:00+9ne5955100 0.0 1017181
09:00+16e7104098 0.0 1017483
12:00+20ese91229100 0.0 10151328
15:00+18sse4540100 0.0 1016435
18:00+16e61144100 0.0 1016333
21:00+14se3644100 0.0 1016109
15 april, thu
thu1500:00+11se365995 0.0 101696
03:00+10sw227138 0.0 101512
06:00+9sw11795 0.0 101610
09:00+14wsw226322 0.0 1016421
12:00+18sw22481 0.0 10151196
15:00+20wsw32442 0.0 10141608
18:00+18wnw33530 0.0 101470
21:00+14nw346377 0.0 101442
16 april, fri
fri1600:00+13nw3465100 0.0 101441
03:00+12n337290 0.0 101422
06:00+12nnw337376 0.0 101533
09:00+16wnw6758100 0.0 1016714
12:00+18nw6652100 0.0 10161358
15:00+14wnw8973100 0.5 1017798
18:00+12w2383100 1.3 1018144
21:00+12w3582100 1.3 1017104